map of BMA home
BMA - Airport
Location
City:  Stockholm, Stockholms län, Sweden
Name:Bromma
ICAO:ESSB
IATA:BMA

Details
Type:Airport (Aerodrome, Airfield)
Use:Public/Civil
Latitude:59°21'16"N (59.354372)
Longitude:17°56'30"E (17.941650)
Datum:WGS 1984
Elevation:47 ft (14 m)
Variation:6.22°E (WMM2015 magnetic declination)
0.16° annual change
Runways:1
Longest:5472 × 148 ft (1668 × 45 m), paved

Time
Time Zone:UTC+1 (DST+2)
Local Time:

Weather
METAR:ESSB 162120Z AUTO 28007KT 5000 -RA FEW004/// SCT010/// OVC014/// 02/02 Q0980

Related Locations
Nearby:
Farthest:CHT: 11197 mi / 18020 km
Waitangi [Tuuta], CIT, NZ

Find:

   beyond  
but within

Other Information
Maps:
NOTAMs:
Links:
Sources:

  
  • flag of Sweden
  

Sectional Chart

Flight Planning
at skyvector.com

Satellite Image

Google Maps Satellite view

 

Copyright © 2004-2019 Karl L. Swartz. All rights reserved.
The Great Circle Mapper name and logo are trademarks of the Great Circle Mapper.
All other trademarks mentioned herein belong to their respective owners.
Please see credits for attibutions and further copyright information.

  Follow gcmap on Facebook Follow gcmap on Twitter Follow gcmap on Google+ GCmap on LinkedIn

hCard Microformat

Geo Microformat